Showing default

COSMOS 2515, 41394

Orbit data source: Space-Track

COSMOS 2515, 41394 is a payload satellite owned by VVKO VKS (CIS) in SSO that was launched on Thu, 24 Mar 2016 UTC via a SOYUZ-2-1A launch vehicle from the Plesetsk Missile And Space Complex (PKMTR). Payload-class satellites include a variety of spacecraft equipped with specific instruments for various scientific and technological missions. These include communications satellites like Starlink; space stations such as the ISS; scientific satellites like the Hubble; Earth observation satellites from companies like Planet Labs, Umbra, and HawkEye 360; GPS; miniature CubeSats for education and research; and military/defense satellites.

Loading next visibility...
Identifier
41394, 2016-020A
Orbit
SSO
Country
Flag of CISCIS
Related business
Manufacturer
Arsenal
Mission
Operational Defense Imaging
Bus & Motor
BARS, AOCS
Mass
3,700 kg wet, ~3,500 kg dry
Launch date (UTC)
2016-03-24 (10 years ago)
Launch vehicle
SOYUZ-2-1A
Launch site
Plesetsk Missile And Space Complex (PKMTR)
Object type
Payload
Rocket body
Debris
Shape & HBR
Cyl + 2 Pan, 5.0 m
Radar Cross Section
20.881 m², Large (>1 m²)

Expand to show TLE details & history
Last TLE update: 8 hours ago

TLE from 8 hours ago
0 COSMOS 2515
1 41394U 16020A   26072.62221427  .00001457  00000-0  99815-4 0  9996
2 41394  97.9827  84.4968 0021955 265.9317  93.9400 15.07619941546013
Epoch: 2026-03-13T14:55Z
TLE epoch observation values (Epoch: 2026-03-13T14:55:59.312Z)
Latitude
-0.00007°
Longitude
49.24457°
Altitude
547.609 km
Speed
7.588 km/s
True Right ascension
05h 37m 59s
True Declination
0° 00' 00"
Sunlit
Object was in daylight at epoch
Visualization orbit readout
Latitude
Unknown
Longitude
Unknown
Altitude
Unknown
Speed
Unknown
Apparent Right ascension
Unknown
Apparent Declination
Unknown
Sunlit
N/A
Visualization observer readout
Local Sidereal Time
03:10:53
Azimuth
Unknown
Elevation
Unknown
Doppler factor
Unknown
Orbital elements
Apogee altitude
555.673 km
Perigee altitude
525.293 km
Semi-major axis
6,918.62 km
Eccentricity
0.0022
Inclination
97.9827°
RAAN
84.4968°
Arg. of periapsis
265.9317°
True anomaly
94.19094°
Mean anomaly
93.94°
Eccentric anomaly
94.06548°
Mean motion
3.7715 °/min
Orbital period
95.45 mins
BSTAR
0.000099815
Loading maneuver chart data...
Computing Atmospheric mass density...
Loading historical data...
Loading historical data...
Loading historical data...
Loading historical data...
Loading historical data...
Loading historical data...
Loading historical data...
Other satellites on launch #20 in the year 2016 (2016-03-24 UTC)

Documentation

Showing up to 5 results
|